Preview of NWS' New Version of Forecast
This preview is not operational and should not be used for support decisions.

Regional Weather Roundup (RWR)

Issued by National Weather Service (NWS)

                            
000
ASUS45 KBOI 180910
RWRID 

IDAHO REGIONAL WEATHER ROUNDUP
NATIONAL WEATHER SERVICE BOISE ID
200 AM MST MON FEB 18 2019

NOTE: "FAIR" INDICATES FEW OR NO CLOUDS BELOW 12000 FEET
WITH NO SIGNIFICANT WEATHER AND/OR OBSTRUCTIONS TO VISIBILITY

IDZ012-014-181000-
SOUTHWEST IDAHO

  
CITY           SKY/WX    TMP DP  RH WIND       PRES   REMARKS
BOISE          CLEAR     26  22  84 W6        30.05R WCI  19          
CALDWELL       CLEAR     28  22  78 W13       30.09R WCI  17          
MOUNTAIN HOME  CLEAR     26  26 100 NW5       30.04R WCI  20          
$$

IDZ016-017-181000-
SOUTHCENTRAL IDAHO

  
CITY           SKY/WX    TMP DP  RH WIND       PRES   REMARKS
BURLEY         CLOUDY    21  13  71 CALM      29.97S                  
JEROME         CLOUDY    22  19  89 E6        29.99S WCI  14          
TWIN FALLS     CLOUDY    22  20  92 SW5       29.99R WCI  16          
$$

IDZ019>023-181000-
SOUTHEAST IDAHO

  
CITY           SKY/WX    TMP DP  RH WIND       PRES   REMARKS
IDAHO FALLS    CLEAR      3  -2  79 N10       29.96S WCI -12          
POCATELLO      PTCLDY    14   9  80 N8        29.96R WCI   3          
REXBURG        CLEAR      4  -1  80 NE8       29.95S WCI  -9          
$$

IDZ006-010-011-018-031-032-181000-
CENTRAL IDAHO MOUNTAINS

  
CITY           SKY/WX    TMP DP  RH WIND       PRES   REMARKS
MCCALL         CLOUDY    14  10  84 CALM      29.95R                  
HAILEY         CLEAR      9   5  85 NW10      29.96S WCI  -6          
STANLEY          N/A      5  -1  76 CALM      29.92R                  
SALMON         CLOUDY    18  11  74 NE3       30.06R                  
CHALLIS        CLOUDY    14   8  77 CALM      29.96S                  
$$

IDZ002-004-006-007-026-181000-
NORTHERN IDAHO

  
CITY           SKY/WX    TMP DP  RH WIND       PRES   REMARKS
LEWISTON       CLOUDY    29  22  75 NW13      30.23R WCI  19          
LOWELL           N/A     28  20  71 N8        30.22R WCI  20          
COEUR D'ALENE  CLEAR     10   4  76 NE9       30.25R WCI  -3          
MULLAN PASS    PTCLDY     0  -5  79 SE5       29.94S WCI -10          
$$